BADR-7 (ARABSAT-6B)

Last updated on Sun Jun 21 2026 00:03:06 GMT+0000 (Coordinated Universal Time)

1 41029U 15065B 26171.32582803 .00000140 00000+0 00000+0 0 9994 2 41029 0.0436 227.4641 0003724 333.5251 210.8305 1.00269290 38790
UTC large
Height (km)
Speed (km/s)
/
Latitude / Longitude
Inclination (degrees)
Orbital Period (minutes)
Azimuth
Elevation
Range (km)
Doppler Factor

Next 0 passes for location: London (51.5072 / 0.1276)

No passes found over London.
BADR-7 (ARABSAT-6B)